Location: Newark
(23.3970°S, 47.6010°W)
Time: 16:06:35
(UTC+00:00)

deb Explorer IX - Pass Details

Date: 23 February 2020
Orbit: 547 x 1100 km, 38.8° (Epoch: 02 April)

Event Time Altitude Azimuth Distance (km) Brightness Sun altitude
Rises 21:03:27 0° 360° (N) 3,181 ? 8.5°
Reaches altitude 10° 21:08:34 10° 41° (NE) 2,447 ? 7.3°
Maximum altitude 21:09:19 10° 49° (NE) 2,457 ? 7.2°
Drops below altitude 10° 21:10:05 10° 56° (ENE) 2,502 ? 7.0°
Sets 21:15:48 0° 96° (E) 3,637 ? 5.7°
